Погода в Окунево

Россия / Кировская область     57°19′53″N   49°21′37″E
темп.,
°C
ветер,
м/с
пор.,
м/с
влажн.,
%
обл.,
%
осадки,
мм/ч
давл.,
гПа
погр.,
м
16 мая, пн
пн1600:00+7зюз22875 0.0 99921
03:00+6юз228759 0.0 99812
06:00+8з238293 0.0 998175
09:00+13з346722 0.1 998821
12:00+15зюз445545 1.1 9971595
15:00+14з456145 1.8 9981113
18:00+13зсз466843 0.3 997420
21:00+8зсз228210 0.3 99818
17 мая, вт
вт1700:00+7зюз349323 0.0 99873
03:00+5з36979 0.0 999126
06:00+7зюз348436 0.0 999243
09:00+11зюз336622 0.0 9991020
12:00+13зюз225897 0.1 9991431
15:00+14сз225495 0.1 9991455
18:00+12сз3470100 0.0 999235
21:00+8св3692100 0.8 999127
18 мая, ср
ср1800:00+8св61189100 0.2 999510
03:00+8ссв61092100 0.6 999534
06:00+7ссв61092100 0.1 1000653
09:00+7ссв5889100 0.3 1001966
12:00+8с6773100 0.1 10021166
15:00+8с5770100 0.5 10031082
18:00+8с586865 0.1 10041097
21:00+3сз49828 0.1 1005220
19 мая, чт
чт1900:00+1сз478827 0.0 1006145
03:00+2зсз368799 0.0 1006157
06:00+5сз3477100 0.1 1006538
09:00+6сз4562100 0.4 10061280
12:00+6зсз5574100 0.3 10071035
15:00+7зсз5573100 1.2 10071006
18:00+6сз4576100 0.3 1008827
21:00+3сз349077 0.4 100899
20 мая, пт
пт2000:00+4сз3694100 0.0 1008562
03:00+2зсз349523 0.1 1009108
06:00+4сз45845 0.0 1009282
09:00+8сз56635 0.3 10081181
12:00+10сз665399 0.8 10081846
15:00+9сз665177 1.0 10081632
18:00+7сз576698 0.1 10081070
21:00+2сз38815 0.1 1008143